Time,TemperatureF,DewpointF,PressureIn,WindDirection,WindDirectionDegrees,WindSpeedMPH,WindSpeedGustMPH,Humidity,HourlyPrecipIn,Conditions,Clouds,dailyrainin,SoftwareType,DateUTC
2015-08-30 00:01:00,61.2,56.3,29.95,SSW,211,0.0,0.0,84,0.00,,---,0.00,VWS V14.01,2015-08-30 07:01:00,
2015-08-30 00:05:00,61.0,56.5,29.95,SSW,211,0.0,0.0,85,0.00,,---,0.00,VWS V14.01,2015-08-30 07:05:00,
2015-08-30 00:07:00,61.0,56.5,29.95,SSW,211,0.0,0.0,85,0.00,,---,0.00,VWS V14.01,2015-08-30 07:07:00,
2015-08-30 00:12:00,60.9,56.7,29.95,SSW,211,0.0,0.0,86,0.00,,---,0.00,VWS V14.01,2015-08-30 07:12:00,
2015-08-30 00:17:00,60.7,56.5,29.95,SSW,211,0.0,0.0,86,0.00,,---,0.00,VWS V14.01,2015-08-30 07:17:00,
2015-08-30 00:22:00,60.5,56.3,29.95,SSW,211,0.0,0.0,86,0.00,,---,0.00,VWS V14.01,2015-08-30 07:22:00,
2015-08-30 00:27:00,60.1,55.9,29.95,SSW,211,0.0,0.0,86,0.00,,---,0.00,VWS V14.01,2015-08-30 07:27:00,
2015-08-30 00:32:00,59.8,55.9,29.95,SSW,211,0.0,0.0,87,0.00,,---,0.00,VWS V14.01,2015-08-30 07:32:00,
2015-08-30 00:38:00,59.8,55.6,29.95,SSW,211,0.0,0.0,86,0.00,,---,0.00,VWS V14.01,2015-08-30 07:38:00,
2015-08-30 00:43:00,59.8,55.9,29.95,SSW,211,0.0,0.0,87,0.00,,---,0.00,VWS V14.01,2015-08-30 07:43:00,
2015-08-30 00:48:00,59.6,56.0,29.95,SSW,211,0.0,-999.0,87,-99.99,,,0.00,weatherlink.com 1.10,2015-08-30 07:48:00,
2015-08-30 00:53:00,59.5,55.6,29.95,SSW,211,0.0,0.0,87,0.00,,---,0.00,VWS V14.01,2015-08-30 07:53:00,
2015-08-30 00:58:00,59.5,56.0,29.95,SSW,211,0.0,0.0,88,0.00,,---,0.00,VWS V14.01,2015-08-30 07:58:00,
2015-08-30 01:03:00,59.3,55.8,29.95,SSW,211,0.0,0.0,88,0.00,,---,0.00,VWS V14.01,2015-08-30 08:03:00,
2015-08-30 01:08:00,59.0,55.5,29.95,SSW,211,0.0,0.0,88,0.00,,---,0.00,VWS V14.01,2015-08-30 08:08:00,
2015-08-30 01:13:00,58.9,55.7,29.95,SSW,211,0.0,0.0,89,0.00,,---,0.00,VWS V14.01,2015-08-30 08:13:00,
2015-08-30 01:18:00,58.7,55.5,29.95,SSW,211,0.0,0.0,89,0.00,,---,0.00,VWS V14.01,2015-08-30 08:18:00,
2015-08-30 01:23:00,58.6,55.4,29.95,SSW,211,0.0,0.0,89,0.00,,---,0.00,VWS V14.01,2015-08-30 08:23:00,
2015-08-30 01:28:00,58.6,55.4,29.95,SSW,211,0.0,0.0,89,0.00,,---,0.00,VWS V14.01,2015-08-30 08:28:00,
2015-08-30 01:33:00,58.6,55.4,29.95,SSW,211,0.0,0.0,89,0.00,,---,0.00,VWS V14.01,2015-08-30 08:33:00,
2015-08-30 01:39:00,58.4,55.2,29.95,SSW,211,0.0,0.0,89,0.00,,---,0.00,VWS V14.01,2015-08-30 08:39:00,
2015-08-30 01:44:00,58.1,54.9,29.95,SSW,211,0.0,0.0,89,0.00,,---,0.00,VWS V14.01,2015-08-30 08:44:00,
2015-08-30 01:49:00,58.0,54.8,29.95,SSW,211,0.0,0.0,89,0.00,,---,0.00,VWS V14.01,2015-08-30 08:49:00,
2015-08-30 01:54:00,57.8,54.6,29.95,SSW,211,0.0,0.0,89,0.00,,---,0.00,VWS V14.01,2015-08-30 08:54:00,
2015-08-30 01:59:00,57.6,54.4,29.95,SSW,211,0.0,0.0,89,0.00,,---,0.00,VWS V14.01,2015-08-30 08:59:00,
2015-08-30 02:04:00,57.5,54.6,29.95,SSW,211,0.0,0.0,90,0.00,,---,0.00,VWS V14.01,2015-08-30 09:04:00,
2015-08-30 02:09:00,57.5,54.6,29.95,SSW,211,0.0,0.0,90,0.00,,---,0.00,VWS V14.01,2015-08-30 09:09:00,
2015-08-30 02:14:00,57.3,54.4,29.95,SSW,211,0.0,0.0,90,0.00,,---,0.00,VWS V14.01,2015-08-30 09:14:00,
2015-08-30 02:19:00,57.2,54.3,29.95,SSW,211,0.0,0.0,90,0.00,,---,0.00,VWS V14.01,2015-08-30 09:19:00,
2015-08-30 02:24:00,57.2,54.3,29.95,SSW,211,0.0,0.0,90,0.00,,---,0.00,VWS V14.01,2015-08-30 09:24:00,
2015-08-30 02:30:00,56.9,54.0,29.95,SSW,211,0.0,0.0,90,0.00,,---,0.00,VWS V14.01,2015-08-30 09:30:00,
2015-08-30 02:35:00,56.7,54.1,29.95,SSW,211,0.0,0.0,91,0.00,,---,0.00,VWS V14.01,2015-08-30 09:35:00,
2015-08-30 02:40:00,56.7,54.1,29.95,SSW,211,0.0,0.0,91,0.00,,---,0.00,VWS V14.01,2015-08-30 09:40:00,
2015-08-30 02:45:00,56.7,54.1,29.95,SSW,211,0.0,0.0,91,0.00,,---,0.00,VWS V14.01,2015-08-30 09:45:00,
2015-08-30 02:50:00,56.6,54.0,29.95,SSW,211,0.0,0.0,91,0.00,,---,0.00,VWS V14.01,2015-08-30 09:50:00,
2015-08-30 02:55:00,56.6,54.0,29.95,SSW,211,0.0,0.0,91,0.00,,---,0.00,VWS V14.01,2015-08-30 09:55:00,
2015-08-30 03:00:00,56.6,54.3,29.95,SSW,211,0.0,0.0,92,0.00,,---,0.00,VWS V14.01,2015-08-30 10:00:00,
2015-08-30 03:05:00,56.6,54.3,29.95,SSW,211,0.0,0.0,92,0.00,,---,0.00,VWS V14.01,2015-08-30 10:05:00,
2015-08-30 03:10:00,56.6,54.3,29.95,SSW,211,0.0,0.0,92,0.00,,---,0.00,VWS V14.01,2015-08-30 10:10:00,
2015-08-30 03:15:00,56.5,54.2,29.95,SSW,211,0.0,0.0,92,0.00,,---,0.00,VWS V14.01,2015-08-30 10:15:00,
2015-08-30 03:20:00,56.3,54.0,29.95,SSW,211,0.0,0.0,92,0.00,,---,0.00,VWS V14.01,2015-08-30 10:20:00,
2015-08-30 03:25:00,56.3,54.0,29.94,SSW,211,0.0,0.0,92,0.00,,---,0.00,VWS V14.01,2015-08-30 10:25:00,
2015-08-30 03:30:00,56.2,53.9,29.94,SSW,211,0.0,0.0,92,0.00,,---,0.00,VWS V14.01,2015-08-30 10:30:00,
2015-08-30 03:35:00,56.2,53.9,29.94,SSW,211,0.0,0.0,92,0.00,,---,0.00,VWS V14.01,2015-08-30 10:35:00,
2015-08-30 03:40:00,56.0,53.7,29.94,SSW,211,0.0,0.0,92,0.00,,---,0.00,VWS V14.01,2015-08-30 10:40:00,
2015-08-30 03:46:00,56.0,53.7,29.94,SSW,211,0.0,0.0,92,0.00,,---,0.00,VWS V14.01,2015-08-30 10:46:00,
2015-08-30 03:51:00,55.9,53.6,29.94,SSW,211,0.0,0.0,92,0.00,,---,0.00,VWS V14.01,2015-08-30 10:51:00,
2015-08-30 03:56:00,55.7,53.4,29.95,SSW,211,0.0,0.0,92,0.00,,---,0.00,VWS V14.01,2015-08-30 10:56:00,
2015-08-30 04:01:00,55.6,53.3,29.95,SSW,211,0.0,0.0,92,0.00,,---,0.00,VWS V14.01,2015-08-30 11:01:00,
2015-08-30 04:06:00,55.4,53.1,29.95,SSW,211,0.0,0.0,92,0.00,,---,0.00,VWS V14.01,2015-08-30 11:06:00,
2015-08-30 04:11:00,55.4,53.1,29.95,SSW,211,0.0,0.0,92,0.00,,---,0.00,VWS V14.01,2015-08-30 11:11:00,
2015-08-30 04:16:00,55.4,53.4,29.95,SSW,211,0.0,0.0,93,0.00,,---,0.00,VWS V14.01,2015-08-30 11:16:00,
2015-08-30 04:21:00,55.4,53.4,29.95,SSW,211,0.0,0.0,93,0.00,,---,0.00,VWS V14.01,2015-08-30 11:21:00,
2015-08-30 04:26:00,55.4,53.4,29.95,SSW,211,0.0,0.0,93,0.00,,---,0.00,VWS V14.01,2015-08-30 11:26:00,
2015-08-30 04:31:00,55.4,53.4,29.95,SSW,211,0.0,0.0,93,0.00,,---,0.00,VWS V14.01,2015-08-30 11:31:00,
2015-08-30 04:36:00,55.3,53.3,29.95,SSW,211,0.0,0.0,93,0.00,,---,0.00,VWS V14.01,2015-08-30 11:36:00,
2015-08-30 04:41:00,55.1,53.1,29.95,SSW,211,0.0,0.0,93,0.00,,---,0.00,VWS V14.01,2015-08-30 11:41:00,
2015-08-30 04:46:00,55.1,53.1,29.95,SSW,211,0.0,0.0,93,0.00,,---,0.00,VWS V14.01,2015-08-30 11:46:00,
2015-08-30 04:52:00,55.0,53.0,29.95,SSW,211,0.0,0.0,93,0.00,,---,0.00,VWS V14.01,2015-08-30 11:52:00,
2015-08-30 04:57:00,54.8,53.1,29.95,SSW,211,0.0,0.0,94,0.00,,---,0.00,VWS V14.01,2015-08-30 11:57:00,
2015-08-30 05:02:00,54.8,53.1,29.95,SSW,211,0.0,0.0,94,0.00,,---,0.00,VWS V14.01,2015-08-30 12:02:00,
2015-08-30 05:07:00,55.0,53.3,29.95,SSW,211,0.0,0.0,94,0.00,,---,0.00,VWS V14.01,2015-08-30 12:07:00,
2015-08-30 05:12:00,55.0,53.3,29.95,SSW,211,0.0,0.0,94,0.00,,---,0.00,VWS V14.01,2015-08-30 12:12:00,
2015-08-30 05:17:00,55.1,53.4,29.95,SSW,211,0.0,0.0,94,0.00,,---,0.00,VWS V14.01,2015-08-30 12:17:00,
2015-08-30 05:22:00,55.0,53.3,29.95,SSW,211,0.0,0.0,94,0.00,,---,0.00,VWS V14.01,2015-08-30 12:22:00,
2015-08-30 05:27:00,54.7,53.0,29.95,SSW,211,0.0,0.0,94,0.00,,---,0.00,VWS V14.01,2015-08-30 12:27:00,
2015-08-30 05:32:00,54.5,52.8,29.95,SSW,211,0.0,0.0,94,0.00,,---,0.00,VWS V14.01,2015-08-30 12:32:00,
2015-08-30 05:37:00,54.5,52.8,29.95,SSW,211,0.0,0.0,94,0.00,,---,0.00,VWS V14.01,2015-08-30 12:37:00,
2015-08-30 05:43:00,54.5,52.8,29.95,SSW,211,0.0,0.0,94,0.00,,---,0.00,VWS V14.01,2015-08-30 12:43:00,
2015-08-30 05:48:00,54.5,53.1,29.95,SSW,211,0.0,0.0,95,0.00,,---,0.00,VWS V14.01,2015-08-30 12:48:00,
2015-08-30 05:53:00,54.5,53.1,29.95,SSW,211,0.0,0.0,95,0.00,,---,0.00,VWS V14.01,2015-08-30 12:53:00,
2015-08-30 05:58:00,54.4,52.7,29.95,SSW,211,0.0,0.0,94,0.00,,---,0.00,VWS V14.01,2015-08-30 12:58:00,
2015-08-30 06:03:00,54.2,52.5,29.95,SSW,211,0.0,0.0,94,0.00,,---,0.00,VWS V14.01,2015-08-30 13:03:00,
2015-08-30 06:08:00,54.1,52.7,29.96,SSW,211,0.0,0.0,95,0.00,,---,0.00,VWS V14.01,2015-08-30 13:08:00,
2015-08-30 06:13:00,54.1,52.7,29.96,SSW,211,0.0,0.0,95,0.00,,---,0.00,VWS V14.01,2015-08-30 13:13:00,
2015-08-30 06:18:00,54.1,52.7,29.96,SSW,211,0.0,0.0,95,0.00,,---,0.00,VWS V14.01,2015-08-30 13:18:00,
2015-08-30 06:23:00,54.1,52.7,29.96,SSW,211,0.0,0.0,95,0.00,,---,0.00,VWS V14.01,2015-08-30 13:23:00,
2015-08-30 06:29:00,54.2,52.8,29.96,SSW,211,0.0,0.0,95,0.00,,---,0.00,VWS V14.01,2015-08-30 13:29:00,
2015-08-30 06:34:00,54.2,52.8,29.96,SSW,211,0.0,0.0,95,0.00,,---,0.00,VWS V14.01,2015-08-30 13:34:00,
2015-08-30 06:39:00,54.1,52.7,29.97,SSW,211,0.0,0.0,95,0.00,,---,0.00,VWS V14.01,2015-08-30 13:39:00,
2015-08-30 06:44:00,54.1,52.7,29.97,SSW,211,0.0,0.0,95,0.00,,---,0.00,VWS V14.01,2015-08-30 13:44:00,
2015-08-30 06:49:00,54.1,52.7,29.97,SSW,211,0.0,0.0,95,0.00,,---,0.00,VWS V14.01,2015-08-30 13:49:00,
2015-08-30 06:54:00,53.9,52.5,29.98,SSW,211,0.0,0.0,95,0.00,,---,0.00,VWS V14.01,2015-08-30 13:54:00,
2015-08-30 06:59:00,53.9,52.5,29.98,SSW,211,0.0,0.0,95,0.00,,---,0.00,VWS V14.01,2015-08-30 13:59:00,
2015-08-30 07:04:00,53.9,52.8,29.98,SSW,211,0.0,0.0,96,0.00,,---,0.00,VWS V14.01,2015-08-30 14:04:00,
2015-08-30 07:09:00,54.1,53.0,29.98,SSW,211,0.0,0.0,96,0.00,,---,0.00,VWS V14.01,2015-08-30 14:09:00,
2015-08-30 07:14:00,54.2,53.1,29.98,SSW,211,0.0,0.0,96,0.00,,---,0.00,VWS V14.01,2015-08-30 14:14:00,
2015-08-30 07:20:00,54.4,53.3,29.98,SSW,211,0.0,0.0,96,0.00,,---,0.00,VWS V14.01,2015-08-30 14:20:00,
2015-08-30 07:25:00,54.5,53.4,29.98,SSW,211,0.0,0.0,96,0.00,,---,0.00,VWS V14.01,2015-08-30 14:25:00,
2015-08-30 07:30:00,54.5,53.4,29.98,SSW,211,0.0,0.0,96,0.00,,---,0.00,VWS V14.01,2015-08-30 14:30:00,
2015-08-30 07:35:00,54.7,53.6,29.98,SSW,211,0.0,0.0,96,0.00,,---,0.00,VWS V14.01,2015-08-30 14:35:00,
2015-08-30 07:40:00,55.1,54.0,29.99,SSW,211,0.0,0.0,96,0.00,,---,0.00,VWS V14.01,2015-08-30 14:40:00,
2015-08-30 07:42:00,55.1,54.0,29.99,SSW,211,0.0,0.0,96,0.00,,---,0.00,VWS V14.01,2015-08-30 14:42:00,
2015-08-30 07:47:00,55.3,54.2,29.99,SSW,211,0.0,0.0,96,0.00,,---,0.00,VWS V14.01,2015-08-30 14:47:00,
2015-08-30 07:52:00,55.6,54.2,30.00,SSW,211,0.0,0.0,95,0.00,,---,0.00,VWS V14.01,2015-08-30 14:52:00,
2015-08-30 07:57:00,56.0,54.6,30.00,SSW,211,0.0,0.0,95,0.00,,---,0.00,VWS V14.01,2015-08-30 14:57:00,
2015-08-30 08:02:00,56.2,54.5,30.00,SSW,211,0.0,0.0,94,0.00,,---,0.00,VWS V14.01,2015-08-30 15:02:00,
2015-08-30 08:07:00,56.7,55.0,30.00,SSW,211,0.0,0.0,94,0.00,,---,0.00,VWS V14.01,2015-08-30 15:07:00,
2015-08-30 08:12:00,57.8,56.1,30.00,SSW,211,0.0,0.0,94,0.00,,---,0.00,VWS V14.01,2015-08-30 15:12:00,
2015-08-30 08:17:00,58.9,56.9,30.00,SSW,211,0.0,0.0,93,0.00,,---,0.00,VWS V14.01,2015-08-30 15:17:00,
2015-08-30 08:22:00,60.1,57.5,30.00,SSW,211,0.0,0.0,91,0.00,,---,0.00,VWS V14.01,2015-08-30 15:22:00,
2015-08-30 08:27:00,60.5,56.9,30.00,SSW,211,0.0,0.0,88,0.00,,---,0.00,VWS V14.01,2015-08-30 15:27:00,
2015-08-30 08:33:00,60.7,57.1,30.00,SSW,211,0.0,0.0,88,0.00,,---,0.00,VWS V14.01,2015-08-30 15:33:00,
2015-08-30 08:38:00,61.8,57.9,30.00,SSW,211,0.0,0.0,87,0.00,,---,0.00,VWS V14.01,2015-08-30 15:38:00,
2015-08-30 08:43:00,62.9,58.3,30.00,SSW,211,0.0,0.0,85,0.00,,---,0.00,VWS V14.01,2015-08-30 15:43:00,
2015-08-30 08:48:00,64.0,58.7,30.00,SSW,211,0.0,0.0,83,0.00,,---,0.00,VWS V14.01,2015-08-30 15:48:00,
2015-08-30 08:53:00,64.8,58.8,30.00,SSW,211,0.0,0.0,81,0.00,,---,0.00,VWS V14.01,2015-08-30 15:53:00,
2015-08-30 08:58:00,65.6,58.9,30.00,SSW,211,0.0,0.0,79,0.00,,---,0.00,VWS V14.01,2015-08-30 15:58:00,
2015-08-30 09:03:00,66.6,59.2,30.00,SSW,211,0.0,0.0,77,0.00,,---,0.00,VWS V14.01,2015-08-30 16:03:00,
2015-08-30 09:08:00,67.6,59.4,30.00,SSW,211,0.0,0.0,75,0.00,,---,0.00,VWS V14.01,2015-08-30 16:08:00,
2015-08-30 09:13:00,68.6,59.6,30.00,SSW,211,0.0,0.0,73,0.00,,---,0.00,VWS V14.01,2015-08-30 16:13:00,
2015-08-30 09:18:00,69.3,59.1,30.00,SSW,211,0.0,0.0,70,0.00,,---,0.00,VWS V14.01,2015-08-30 16:18:00,
2015-08-30 09:24:00,69.4,59.2,29.99,SSW,211,0.0,0.0,70,0.00,,---,0.00,VWS V14.01,2015-08-30 16:24:00,
2015-08-30 09:29:00,69.9,58.9,29.99,SSW,211,0.0,0.0,68,0.00,,---,0.00,VWS V14.01,2015-08-30 16:29:00,
2015-08-30 09:34:00,70.4,58.9,29.99,SSW,211,0.0,0.0,67,0.00,,---,0.00,VWS V14.01,2015-08-30 16:34:00,
2015-08-30 09:39:00,71.1,58.8,29.98,SSW,211,0.0,0.0,65,0.00,,---,0.00,VWS V14.01,2015-08-30 16:39:00,
2015-08-30 09:44:00,71.5,59.1,29.98,SSW,211,0.0,0.0,65,0.00,,---,0.00,VWS V14.01,2015-08-30 16:44:00,
2015-08-30 09:49:00,71.5,59.1,29.98,SW,226,0.0,0.0,65,0.00,,---,0.00,VWS V14.01,2015-08-30 16:49:00,
2015-08-30 09:54:00,71.6,59.2,29.98,SW,226,0.0,0.0,65,0.00,,---,0.00,VWS V14.01,2015-08-30 16:54:00,
2015-08-30 09:59:00,72.0,59.2,29.98,WSW,241,0.0,0.0,64,0.00,,---,0.00,VWS V14.01,2015-08-30 16:59:00,
2015-08-30 10:04:00,72.7,58.9,29.98,WSW,254,0.0,0.0,62,0.00,,---,0.00,VWS V14.01,2015-08-30 17:04:00,
2015-08-30 10:09:00,73.5,58.8,29.99,West,276,0.0,3.0,60,0.00,,---,0.00,VWS V14.01,2015-08-30 17:09:00,
2015-08-30 10:14:00,74.0,58.8,29.99,WSW,257,0.0,4.0,59,0.00,,---,0.00,VWS V14.01,2015-08-30 17:14:00,
2015-08-30 10:20:00,74.2,59.0,29.99,WSW,257,0.0,4.0,59,0.00,,---,0.00,VWS V14.01,2015-08-30 17:20:00,
2015-08-30 10:25:00,74.6,58.9,29.99,West,260,0.0,4.0,58,0.00,,---,0.00,VWS V14.01,2015-08-30 17:25:00,
2015-08-30 10:30:00,74.6,58.9,29.99,West,259,0.0,4.0,58,0.00,,---,0.00,VWS V14.01,2015-08-30 17:30:00,
2015-08-30 10:35:00,74.2,59.0,29.99,West,265,0.0,5.0,59,0.00,,---,0.00,VWS V14.01,2015-08-30 17:35:00,
2015-08-30 10:40:00,74.2,58.5,29.99,West,263,0.0,0.0,58,0.00,,---,0.00,VWS V14.01,2015-08-30 17:40:00,
2015-08-30 10:45:00,74.0,58.8,29.99,West,267,0.0,1.0,59,0.00,,---,0.00,VWS V14.01,2015-08-30 17:45:00,
2015-08-30 10:50:00,74.2,59.0,29.99,West,272,0.0,2.0,59,0.00,,---,0.00,VWS V14.01,2015-08-30 17:50:00,
2015-08-30 10:55:00,75.1,59.3,29.99,SSW,209,0.0,2.0,58,0.00,,---,0.00,VWS V14.01,2015-08-30 17:55:00,
2015-08-30 11:00:00,75.6,59.8,29.99,WSW,253,0.0,5.0,58,0.00,,---,0.00,VWS V14.01,2015-08-30 18:00:00,
2015-08-30 11:05:00,76.1,59.8,29.99,WSW,252,0.0,5.0,57,0.00,,---,0.00,VWS V14.01,2015-08-30 18:05:00,
2015-08-30 11:10:00,75.8,60.0,29.99,West,267,0.0,3.0,58,0.00,,---,0.00,VWS V14.01,2015-08-30 18:10:00,
2015-08-30 11:15:00,76.1,59.3,29.99,WNW,300,0.0,5.0,56,0.00,,---,0.00,VWS V14.01,2015-08-30 18:15:00,
2015-08-30 11:20:00,76.3,59.5,29.99,WNW,300,2.0,6.0,56,0.00,,---,0.00,VWS V14.01,2015-08-30 18:20:00,
2015-08-30 11:26:00,76.8,59.9,29.98,West,277,0.0,6.0,56,0.00,,---,0.00,VWS V14.01,2015-08-30 18:26:00,
2015-08-30 11:31:00,77.2,60.3,29.98,West,259,0.0,7.0,56,0.00,,---,0.00,VWS V14.01,2015-08-30 18:31:00,
2015-08-30 11:36:00,77.4,60.5,29.98,WSW,243,2.0,7.0,56,0.00,,---,0.00,VWS V14.01,2015-08-30 18:36:00,
2015-08-30 11:41:00,77.7,60.8,29.98,West,263,1.0,8.0,56,0.00,,---,0.00,VWS V14.01,2015-08-30 18:41:00,
2015-08-30 11:46:00,77.7,60.3,29.98,West,278,0.0,8.0,55,0.00,,---,0.00,VWS V14.01,2015-08-30 18:46:00,
2015-08-30 11:51:00,77.6,60.7,29.98,WNW,295,3.0,8.0,56,0.00,,---,0.00,VWS V14.01,2015-08-30 18:51:00,
2015-08-30 11:56:00,77.4,60.5,29.98,West,259,7.0,9.0,56,0.00,,---,0.00,VWS V14.01,2015-08-30 18:56:00,
2015-08-30 12:01:00,77.2,60.3,29.98,WSW,255,0.0,9.0,56,0.00,,---,0.00,VWS V14.01,2015-08-30 19:01:00,
2015-08-30 12:06:00,77.2,59.8,29.98,WSW,237,2.0,9.0,55,0.00,,---,0.00,VWS V14.01,2015-08-30 19:06:00,
2015-08-30 12:11:00,76.8,59.9,29.98,SW,221,0.0,8.0,56,0.00,,---,0.00,VWS V14.01,2015-08-30 19:11:00,
2015-08-30 12:16:00,76.5,60.2,29.98,WSW,242,7.0,8.0,57,0.00,,---,0.00,VWS V14.01,2015-08-30 19:16:00,
2015-08-30 12:21:00,76.1,60.3,29.98,NNW,333,2.0,8.0,58,0.00,,---,0.00,VWS V14.01,2015-08-30 19:21:00,
2015-08-30 12:27:00,76.7,59.8,29.98,West,270,0.0,8.0,56,0.00,,---,0.00,VWS V14.01,2015-08-30 19:27:00,
2015-08-30 12:32:00,77.2,60.3,29.98,NW,304,0.0,8.0,56,0.00,,---,0.00,VWS V14.01,2015-08-30 19:32:00,
2015-08-30 12:37:00,77.7,60.3,29.97,WNW,293,6.0,8.0,55,0.00,,---,0.00,VWS V14.01,2015-08-30 19:37:00,
2015-08-30 12:42:00,78.1,60.6,29.97,NW,304,0.0,6.0,55,0.00,,---,0.00,VWS V14.01,2015-08-30 19:42:00,
2015-08-30 12:47:00,78.8,61.3,29.97,WSW,244,3.0,7.0,55,0.00,,---,0.00,VWS V14.01,2015-08-30 19:47:00,
2015-08-30 12:52:00,78.8,61.3,29.97,West,273,1.0,7.0,55,0.00,,---,0.00,VWS V14.01,2015-08-30 19:52:00,
2015-08-30 12:57:00,79.2,60.6,29.97,West,272,3.0,8.0,53,0.00,,---,0.00,VWS V14.01,2015-08-30 19:57:00,
2015-08-30 13:02:00,79.0,60.4,29.97,SW,231,5.0,8.0,53,0.00,,---,0.00,VWS V14.01,2015-08-30 20:02:00,
2015-08-30 13:07:00,78.6,60.6,29.97,SW,225,0.0,0.0,54,0.00,,---,0.00,VWS V14.01,2015-08-30 20:07:00,
2015-08-30 13:12:00,78.8,60.2,29.97,West,269,0.0,8.0,53,0.00,,---,0.00,VWS V14.01,2015-08-30 20:12:00,
2015-08-30 13:17:00,78.6,60.1,29.97,SW,224,0.0,8.0,53,0.00,,---,0.00,VWS V14.01,2015-08-30 20:17:00,
2015-08-30 13:23:00,78.6,60.1,29.97,WNW,283,0.0,9.0,53,0.00,,---,0.00,VWS V14.01,2015-08-30 20:23:00,
2015-08-30 13:28:00,78.8,59.7,29.97,SW,215,0.0,10.0,52,0.00,,---,0.00,VWS V14.01,2015-08-30 20:28:00,
2015-08-30 13:33:00,79.0,59.9,29.97,WNW,288,0.0,10.0,52,0.00,,---,0.00,VWS V14.01,2015-08-30 20:33:00,
2015-08-30 13:38:00,79.2,60.1,29.97,WSW,242,5.0,5.0,52,0.00,,---,0.00,VWS V14.01,2015-08-30 20:38:00,
2015-08-30 13:43:00,79.2,59.5,29.97,WSW,250,1.0,8.0,51,0.00,,---,0.00,VWS V14.01,2015-08-30 20:43:00,
2015-08-30 13:48:00,79.4,59.7,29.97,SW,224,7.0,13.0,51,0.00,,---,0.00,VWS V14.01,2015-08-30 20:48:00,
2015-08-30 13:53:00,78.8,59.2,29.96,SW,232,4.0,13.0,51,0.00,,---,0.00,VWS V14.01,2015-08-30 20:53:00,
2015-08-30 13:58:00,78.5,59.4,29.96,WSW,254,6.0,13.0,52,0.00,,---,0.00,VWS V14.01,2015-08-30 20:58:00,
2015-08-30 14:03:00,79.0,59.3,29.96,West,264,1.0,13.0,51,0.00,,---,0.00,VWS V14.01,2015-08-30 21:03:00,
2015-08-30 14:08:00,79.4,59.7,29.95,WSW,257,3.0,3.0,51,0.00,,---,0.00,VWS V14.01,2015-08-30 21:08:00,
2015-08-30 14:13:00,80.1,59.8,29.95,West,273,4.0,7.0,50,0.00,,---,0.00,VWS V14.01,2015-08-30 21:13:00,
2015-08-30 14:18:00,80.3,60.0,29.95,West,260,0.0,9.0,50,0.00,,---,0.00,VWS V14.01,2015-08-30 21:18:00,
2015-08-30 14:23:00,80.1,59.2,29.95,SW,229,5.0,9.0,49,0.00,,---,0.00,VWS V14.01,2015-08-30 21:23:00,
2015-08-30 14:28:00,79.4,59.7,29.95,West,272,3.0,9.0,51,0.00,,---,0.00,VWS V14.01,2015-08-30 21:28:00,
2015-08-30 14:33:00,79.4,59.2,29.95,SSW,205,0.0,9.0,50,0.00,,---,0.00,VWS V14.01,2015-08-30 21:33:00,
2015-08-30 14:38:00,79.9,59.6,29.94,WSW,254,0.0,6.0,50,0.00,,---,0.00,VWS V14.01,2015-08-30 21:38:00,
2015-08-30 14:44:00,80.5,59.0,29.94,West,264,0.0,7.0,48,0.00,,---,0.00,VWS V14.01,2015-08-30 21:44:00,
2015-08-30 14:49:00,81.1,59.0,29.94,WSW,253,1.0,7.0,47,0.00,,---,0.00,VWS V14.01,2015-08-30 21:49:00,
2015-08-30 14:54:00,80.3,58.8,29.94,SW,236,0.0,10.0,48,0.00,,---,0.00,VWS V14.01,2015-08-30 21:54:00,
2015-08-30 14:59:00,79.9,57.9,29.94,WNW,287,6.0,10.0,47,0.00,,---,0.00,VWS V14.01,2015-08-30 21:59:00,
2015-08-30 15:04:00,79.9,58.5,29.94,SW,214,1.0,11.0,48,0.00,,---,0.00,VWS V14.01,2015-08-30 22:04:00,
2015-08-30 15:14:00,80.9,58.2,29.94,West,281,4.0,9.0,46,0.00,,---,0.00,VWS V14.01,2015-08-30 22:14:00,
2015-08-30 15:27:00,79.9,57.9,29.93,SW,221,2.0,9.0,47,0.00,,---,0.00,VWS V14.01,2015-08-30 22:27:00,
2015-08-30 15:32:00,79.8,57.8,29.93,West,271,6.0,9.0,47,0.00,,---,0.00,VWS V14.01,2015-08-30 22:32:00,
2015-08-30 15:43:00,80.1,57.5,29.93,SW,236,8.0,8.0,46,0.00,,---,0.00,VWS V14.01,2015-08-30 22:43:00,
2015-08-30 15:51:00,80.3,58.0,29.93,WNW,294,0.0,-999.0,46,-99.99,,,0.00,weatherlink.com 1.10,2015-08-30 22:51:00,
2015-08-30 15:56:00,81.1,57.8,29.92,WNW,282,0.0,9.0,45,0.00,,---,0.00,VWS V14.01,2015-08-30 22:56:00,
2015-08-30 16:05:00,81.1,58.0,29.92,West,281,5.0,-999.0,45,-99.99,,,0.00,weatherlink.com 1.10,2015-08-30 23:05:00,
2015-08-30 16:11:00,80.3,57.7,29.92,SW,229,0.0,6.0,46,0.00,,---,0.00,VWS V14.01,2015-08-30 23:11:00,
2015-08-30 16:16:00,80.5,57.2,29.92,SW,221,3.0,6.0,45,0.00,,---,0.00,VWS V14.01,2015-08-30 23:16:00,
2015-08-30 16:21:00,80.1,56.9,29.92,West,265,9.0,11.0,45,0.00,,---,0.00,VWS V14.01,2015-08-30 23:21:00,
2015-08-30 16:26:00,80.5,57.2,29.92,SSW,213,0.0,11.0,45,0.00,,---,0.00,VWS V14.01,2015-08-30 23:26:00,
2015-08-30 16:31:00,80.3,57.0,29.92,WSW,247,3.0,11.0,45,0.00,,---,0.00,VWS V14.01,2015-08-30 23:31:00,
2015-08-30 16:38:00,80.3,57.0,29.92,WNW,294,1.0,11.0,45,0.00,,---,0.00,VWS V14.01,2015-08-30 23:38:00,
2015-08-30 16:43:00,80.1,57.5,29.92,SSW,212,0.0,11.0,46,0.00,,---,0.00,VWS V14.01,2015-08-30 23:43:00,
2015-08-30 16:50:00,80.1,56.9,29.92,SW,232,0.0,11.0,45,0.00,,---,0.00,VWS V14.01,2015-08-30 23:50:00,
2015-08-30 16:58:00,79.8,57.2,29.91,SSW,212,2.0,11.0,46,0.00,,---,0.00,VWS V14.01,2015-08-30 23:58:00,
2015-08-30 17:05:00,79.6,57.6,29.91,WSW,247,0.0,11.0,47,0.00,,---,0.00,VWS V14.01,2015-08-31 00:05:00,
2015-08-30 17:10:00,79.8,57.8,29.91,WSW,247,0.0,2.0,47,0.00,,---,0.00,VWS V14.01,2015-08-31 00:10:00,
2015-08-30 17:15:00,79.8,57.8,29.91,South,190,6.0,6.0,47,0.00,,---,0.00,VWS V14.01,2015-08-31 00:15:00,
2015-08-30 17:20:00,79.6,57.6,29.91,SSE,148,0.0,7.0,47,0.00,,---,0.00,VWS V14.01,2015-08-31 00:20:00,
2015-08-30 17:25:00,79.8,57.8,29.91,SW,215,2.0,7.0,47,0.00,,---,0.00,VWS V14.01,2015-08-31 00:25:00,
2015-08-30 17:30:00,79.8,57.8,29.91,West,281,0.0,7.0,47,0.00,,---,0.00,VWS V14.01,2015-08-31 00:30:00,
2015-08-30 17:35:00,79.8,57.2,29.91,SE,134,2.0,7.0,46,0.00,,---,0.00,VWS V14.01,2015-08-31 00:35:00,
2015-08-30 17:40:00,79.6,57.0,29.91,SSW,205,4.0,5.0,46,0.00,,---,0.00,VWS V14.01,2015-08-31 00:40:00,
2015-08-30 17:45:00,79.4,58.0,29.91,SSW,193,0.0,7.0,48,0.00,,---,0.00,VWS V14.01,2015-08-31 00:45:00,
2015-08-30 17:50:00,79.0,57.7,29.91,SW,218,1.0,7.0,48,0.00,,---,0.00,VWS V14.01,2015-08-31 00:50:00,
2015-08-30 17:55:00,79.0,57.7,29.90,SW,225,0.0,7.0,48,0.00,,---,0.00,VWS V14.01,2015-08-31 00:55:00,
2015-08-30 18:00:00,78.6,57.9,29.90,SW,227,0.0,7.0,49,0.00,,---,0.00,VWS V14.01,2015-08-31 01:00:00,
2015-08-30 18:06:00,78.3,57.6,29.90,SSW,211,0.0,7.0,49,0.00,,---,0.00,VWS V14.01,2015-08-31 01:06:00,
2015-08-30 18:11:00,78.1,59.1,29.90,SSE,157,0.0,4.0,52,0.00,,---,0.00,VWS V14.01,2015-08-31 01:11:00,
2015-08-30 18:16:00,77.7,59.8,29.90,South,180,0.0,5.0,54,0.00,,---,0.00,VWS V14.01,2015-08-31 01:16:00,
2015-08-30 18:21:00,77.2,60.3,29.90,ESE,115,0.0,5.0,56,0.00,,---,0.00,VWS V14.01,2015-08-31 01:21:00,
2015-08-30 18:26:00,76.5,60.6,29.90,East,80,0.0,5.0,58,0.00,,---,0.00,VWS V14.01,2015-08-31 01:26:00,
2015-08-30 18:31:00,75.6,60.8,29.90,East,80,0.0,8.0,60,0.00,,---,0.00,VWS V14.01,2015-08-31 01:31:00,
2015-08-30 18:36:00,75.1,60.8,29.90,NE,51,0.0,8.0,61,0.00,,---,0.00,VWS V14.01,2015-08-31 01:36:00,
2015-08-30 18:41:00,74.4,60.5,29.89,SE,138,0.0,5.0,62,0.00,,---,0.00,VWS V14.01,2015-08-31 01:41:00,
2015-08-30 18:46:00,73.7,60.8,29.89,ENE,72,0.0,8.0,64,0.00,,---,0.00,VWS V14.01,2015-08-31 01:46:00,
2015-08-30 18:51:00,73.2,60.7,29.89,East,85,0.0,8.0,65,0.00,,---,0.00,VWS V14.01,2015-08-31 01:51:00,
2015-08-30 18:56:00,72.7,60.7,29.89,ENE,68,0.0,8.0,66,0.00,,---,0.00,VWS V14.01,2015-08-31 01:56:00,
2015-08-30 19:01:00,72.1,60.5,29.89,ENE,72,0.0,8.0,67,0.00,,---,0.00,VWS V14.01,2015-08-31 02:01:00,
2015-08-30 19:06:00,71.8,60.7,29.89,East,89,0.0,8.0,68,0.00,,---,0.00,VWS V14.01,2015-08-31 02:06:00,
2015-08-30 19:11:00,71.5,60.8,29.89,ESE,115,0.0,8.0,69,0.00,,---,0.00,VWS V14.01,2015-08-31 02:11:00,
2015-08-30 19:16:00,71.1,60.8,29.89,SSW,206,5.0,8.0,70,0.00,,---,0.00,VWS V14.01,2015-08-31 02:16:00,
2015-08-30 19:22:00,70.4,60.6,29.89,South,188,0.0,8.0,71,0.00,,---,0.00,VWS V14.01,2015-08-31 02:22:00,
2015-08-30 19:27:00,69.9,60.5,29.89,SSW,206,0.0,8.0,72,0.00,,---,0.00,VWS V14.01,2015-08-31 02:27:00,
2015-08-30 19:32:00,69.3,60.3,29.89,SSE,154,0.0,9.0,73,0.00,,---,0.00,VWS V14.01,2015-08-31 02:32:00,
2015-08-30 19:37:00,68.9,60.3,29.89,SSW,192,4.0,9.0,74,0.00,,---,0.00,VWS V14.01,2015-08-31 02:37:00,
2015-08-30 19:42:00,68.4,60.2,29.89,SW,215,5.0,8.0,75,0.00,,---,0.00,VWS V14.01,2015-08-31 02:42:00,
2015-08-30 19:47:00,68.1,60.3,29.89,SSW,211,2.0,8.0,76,0.00,,---,0.00,VWS V14.01,2015-08-31 02:47:00,
2015-08-30 19:52:00,67.8,60.3,29.89,SSW,200,0.0,10.0,77,0.00,,---,0.00,VWS V14.01,2015-08-31 02:52:00,
2015-08-30 19:57:00,67.4,60.0,29.89,SSW,200,0.0,10.0,77,0.00,,---,0.00,VWS V14.01,2015-08-31 02:57:00,
2015-08-30 20:02:00,67.3,60.2,29.89,ESE,123,0.0,10.0,78,0.00,,---,0.00,VWS V14.01,2015-08-31 03:02:00,
2015-08-30 20:07:00,67.1,60.0,29.89,SSW,198,0.0,0.0,78,0.00,,---,0.00,VWS V14.01,2015-08-31 03:07:00,
2015-08-30 20:12:00,66.9,60.2,29.89,SSW,193,0.0,1.0,79,0.00,,---,0.00,VWS V14.01,2015-08-31 03:12:00,
2015-08-30 20:18:00,66.8,60.1,29.89,SSW,205,2.0,8.0,79,0.00,,---,0.00,VWS V14.01,2015-08-31 03:18:00,
2015-08-30 20:23:00,66.4,60.0,29.90,SSW,198,4.0,8.0,80,0.00,,---,0.00,VWS V14.01,2015-08-31 03:23:00,
2015-08-30 20:28:00,66.3,60.0,29.90,SSW,202,4.0,8.0,80,0.00,,---,0.00,VWS V14.01,2015-08-31 03:28:00,
2015-08-30 20:33:00,66.1,60.1,29.90,SSE,158,6.0,8.0,81,0.00,,---,0.00,VWS V14.01,2015-08-31 03:33:00,
2015-08-30 20:38:00,66.0,60.0,29.90,South,169,0.0,0.0,81,0.00,,---,0.00,VWS V14.01,2015-08-31 03:38:00,
2015-08-30 20:43:00,65.8,59.8,29.90,South,183,0.0,8.0,81,0.00,,---,0.00,VWS V14.01,2015-08-31 03:43:00,
2015-08-30 20:48:00,65.6,60.0,29.90,SSW,203,0.0,8.0,82,0.00,,---,0.00,VWS V14.01,2015-08-31 03:48:00,
2015-08-30 20:53:00,65.5,59.9,29.91,South,188,0.0,10.0,82,0.00,,---,0.00,VWS V14.01,2015-08-31 03:53:00,
2015-08-30 20:58:00,65.5,60.2,29.91,SSW,201,0.0,10.0,83,0.00,,---,0.00,VWS V14.01,2015-08-31 03:58:00,
2015-08-30 21:03:00,65.3,60.0,29.91,SSW,202,0.0,10.0,83,0.00,,---,0.00,VWS V14.01,2015-08-31 04:03:00,
2015-08-30 21:08:00,65.2,59.9,29.91,South,191,0.0,5.0,83,0.00,,---,0.00,VWS V14.01,2015-08-31 04:08:00,
2015-08-30 21:14:00,65.2,59.9,29.91,SSW,198,0.0,5.0,83,0.00,,---,0.00,VWS V14.01,2015-08-31 04:14:00,
2015-08-30 21:19:00,65.0,59.7,29.91,South,185,2.0,5.0,83,0.00,,---,0.00,VWS V14.01,2015-08-31 04:19:00,
2015-08-30 21:24:00,65.0,59.7,29.91,SE,143,0.0,5.0,83,0.00,,---,0.00,VWS V14.01,2015-08-31 04:24:00,
2015-08-30 21:29:00,64.8,59.9,29.91,SSW,203,0.0,5.0,84,0.00,,---,0.00,VWS V14.01,2015-08-31 04:29:00,
2015-08-30 21:34:00,64.8,59.9,29.91,South,169,4.0,7.0,84,0.00,,---,0.00,VWS V14.01,2015-08-31 04:34:00,
2015-08-30 21:39:00,64.7,59.8,29.91,SSE,155,0.0,4.0,84,0.00,,---,0.00,VWS V14.01,2015-08-31 04:39:00,
2015-08-30 21:44:00,64.7,59.8,29.91,SSW,200,0.0,8.0,84,0.00,,---,0.00,VWS V14.01,2015-08-31 04:44:00,
2015-08-30 21:49:00,64.5,59.6,29.91,South,171,0.0,8.0,84,0.00,,---,0.00,VWS V14.01,2015-08-31 04:49:00,
2015-08-30 21:54:00,64.5,59.9,29.91,SW,214,4.0,10.0,85,0.00,,---,0.00,VWS V14.01,2015-08-31 04:54:00,
2015-08-30 21:59:00,64.3,59.7,29.91,SSE,157,0.0,10.0,85,0.00,,---,0.00,VWS V14.01,2015-08-31 04:59:00,
2015-08-30 22:04:00,64.2,59.6,29.91,SSE,147,0.0,10.0,85,0.00,,---,0.00,VWS V14.01,2015-08-31 05:04:00,